www.pogodaiklimat.ru

Погода и климат >> Архив погоды >> Россия >> Якутия >> Агаякан


ПОГОДА в Агаякане

  • Прогноз погоды в Агаякане
  • Монитор погоды в Агаякане
  • Климат города

АРХИВ ПОГОДЫ в Агаякане

Время (UTC), дата Ветер
(напр.,м/с)
 
Видим.   Явления Облачность Т
(С)
Тd
(С)
f
(%)
Тe
(С)
Тes
(С)
Комфортность P
(гПа)
Po
(гПа)
Тmin
(С)
Tmax
(С)
R
(мм)
R24
(мм)
S
(см)
15 14.10 С 1 20 км 10/0
[Ac As]
-10.2 -10.8 95 -13 -13 1030.3 932.3
18 14.10 С 1 20 км 10/0
[Ac As]
-11.3 -11.9 95 -14 -14 1031.5 933.0
21 14.10 СВ 1 20 км 10/0
[Ac As]
-10.7 -11.3 95 -13 -13 1031.3 933.0 -11.7 16
00 15.10 штиль 0 20 км слабый снег 10/0
[As op]
-10.1 -11.4 90 -10 -10 1030.8 933.1
03 15.10 штиль 0 50 км {снег} 10/0
[As op]
-7.3 -10.3 79 -8 -8 1029.5 932.5
06 15.10 В 1 50 км {снег} 8/0
[Ac As]
-7.0 -10.8 74 -9 -9 1028.9 932.1
09 15.10 штиль 0 20 км 3/0
[As trans]
-13.3 -13.9 95 -13 -13 1031.7 932.4 -6.9 0.0
12 15.10 штиль 0 20 км 6/0
[Ac As]
-16.1 -16.7 95 -16 -16 1033.1 932.6
15 15.10 Ю 1 20 км 8/0
[Ac As]
-13.5 -14.1 95 -16 -16 1032.0 932.6
18 15.10 Ю 1 20 км 8/0
[Ac As]
-14.1 -14.7 95 -17 -17 1032.1 932.5
21 15.10 З 1 20 км слабый снег 10/0
[Ac As]
-14.4 -15.0 95 -17 -17 1032.1 932.4 -16.1 0.6 18
00 16.10 штиль 0 50 км {снег} 10/0
[Ac As]
-12.5 -13.1 95 -13 -12 1032.3 933.3
03 16.10 штиль 0 50 км в посл. час снег 10/0
[Ac As]
-9.3 -12.3 79 -10 -9 1030.6 932.8
06 16.10 штиль 0 50 км {снег} 8/0
[As trans]
-7.8 -12.3 70 -8 -8 1029.7 932.5
09 16.10 штиль 0 20 км ясно -14.4 -15.7 90 -14 -14 1033.2 933.4 -7.7 0.0
12 16.10 штиль 0 20 км ясно -18.2 -18.8 95 -18 -18 1035.0 933.5
15 16.10 Ю 2 20 км ясно -19.3 -18.9 100 -25 -25 1035.9 933.9
18 16.10 Ю 1 20 км 4/0
[Ac As]
-20.4 -21.0 95 -23 -23 1036.2 933.8
21 16.10 Ю 2 20 км ясно -23.5 -24.1 95 -30 -30 1036.3 932.7 -24.1 18
00 17.10 ЮЗ 1 50 км ясно -23.5 -24.1 95 -27 -26 1035.4 931.9
03 17.10 Ю 2 50 км ясно -16.0 -17.3 90 -21 -20 1029.9 929.8
06 17.10 СВ 1 50 км ясно -11.2 -17.4 60 -13 -13 1025.5 927.5
09 17.10 штиль 0 20 км ясно -19.9 -20.5 95 -20 -20 1028.4 927.0 -11.1
12 17.10 штиль 0 20 км ясно -22.3 -23.0 94 -22 -22 1029.1 926.6
15 17.10 штиль 0 20 км ясно -24.7 -25.3 95 -25 -25 1029.3 925.9
18 17.10 штиль 0 20 км ясно -26.1 -26.7 95 -26 -26 1028.9 925.0
21 17.10 штиль 0 20 км ясно -26.5 -27.2 94 -27 -27 1028.2 924.3 -26.7 17
00 18.10 штиль 0 50 км 4/0
[Ci fib]
-25.5 -26.1 95 -26 -25 1026.5 923.1
03 18.10 ЮЗ 1 50 км ясно -16.1 -18.8 80 -19 -17 1021.5 922.2
06 18.10 штиль 0 50 км ясно -14.5 -21.7 54 -15 -14 1018.8 920.3
09 18.10 штиль 0 20 км ясно -21.0 -22.9 85 -21 -21 1021.6 920.4 -14.3
12 18.10 штиль 0 20 км ясно -23.8 -25.0 90 -24 -24 1023.4 920.9
15 18.10 штиль 0 20 км ясно -24.9 -25.6 94 -25 -25 1023.9 921.0
18 18.10 штиль 0 20 км ясно -25.3 -26.0 94 -25 -25 1024.1 921.0
21 18.10 штиль 0 20 км 4/4 1000 м
[Sc]
-26.7 -27.3 95 -27 -27 1025.5 921.7 -27.5 17
00 19.10 штиль 0 50 км 6/0
[Ac As]
-24.8 -26.0 90 -25 -24 1025.0 922.0
03 19.10 Ю 1 50 км ясно -14.7 -18.1 75 -17 -16 1020.5 921.7
06 19.10 штиль 0 50 км ясно -11.3 -16.6 65 -11 -11 1017.4 920.2
09 19.10 СВ 1 20 км ясно -18.4 -20.3 85 -21 -21 1021.0 920.9 -11.2
12 19.10 штиль 0 20 км ясно -24.1 -25.4 89 -24 -24 1023.5 920.9
15 19.10 штиль 0 20 км ясно -26.2 -26.8 95 -26 -26 1024.8 921.3
18 19.10 штиль 0 20 км ясно -26.8 -27.5 94 -27 -27 1025.7 921.9
21 19.10 штиль 0 20 км 4/0
[Ac As]
-25.6 -26.3 94 -26 -26 1025.8 922.4 -27.4 17
00 20.10 Ю 2 50 км 6/0
[Ac As]
-23.1 -25.0 84 -29 -29 1025.2 922.9
03 20.10 Ю 1 50 км ясно -15.7 -19.9 70 -18 -17 1022.4 923.1
06 20.10 СВ 1 50 км ясно -14.4 -19.5 65 -17 -17 1021.7 922.9
09 20.10 штиль 0 20 км 4/0
[Ci fib]
-19.5 -21.4 85 -20 -20 1025.8 924.7 -14.3
12 20.10 штиль 0 20 км ясно -26.0 -26.5 96 -26 -26 1029.2 925.3
15 20.10 штиль 0 20 км ясно -26.7 -27.3 95 -27 -27 1030.6 926.4
18 20.10 штиль 0 20 км ясно -27.5 -28.1 95 -28 -28 1031.5 926.8
21 20.10 ЮЗ 2 20 км ясно -28.1 -28.6 95 -35 -35 опасность
обморожения
1033.1 928.0 -28.6 17
00 21.10 Ю 2 50 км 6/0
[Ac As]
-22.6 -23.8 90 -29 -29 1030.0 927.4
03 21.10 ЮЗ 2 50 км 10/0
[Ac trans Cs]
-15.7 -18.4 80 -21 -20 1027.3 927.5
06 21.10 ЮЗ 1 50 км 10/0
[As op]
-15.8 -18.5 80 -18 -18 1026.0 926.3
09 21.10 штиль 0 20 км 10/0
[As op]
-15.9 -17.8 85 -16 -16 1026.4 926.6 -15.5

 

Местоположение метеостанции Агаякан (Якутия, Россия): широта 63.33 долгота 141.70 высота над уровнем моря 777 м.

В архиве по умолчанию представлена погода в Агаякане за последнюю неделю. Архивные данные за месяц целиком и за предыдущие месяцы, начиная с января 2011 года, Вы можете получить, выбрав интересующий диапазон дат из раскрывающегося списка и нажав кнопку "Ввод!".


*Определитесь, кто Вы:
робот инопланетянин человек

Внимание! Время в таблицах - всемирное. Для получения местного времени необходимо прибавить поправку, которая в Агаякане равна 10 ч.

Смотрите также архив погоды в соседних городах и на ближайших метеорологических станциях:

Погода в Оймяконе (Якутия, Россия) (71 км)
Погода в Юртах (Якутия, Россия) (80 км)
Погода в Восточной (Якутия, Россия) (106 км)
Погода в Усть-Нере (Якутия, Россия) (150 км)
Погода в Делянкире (Якутия, Россия) (201 км)
Погода в Теплом Ключе (Якутия, Россия) (254 км)
Погода в Уеге (Хабаровский край, Россия) (295 км)
Погода в Томпо (Якутия, Россия) (299 км)
Погода в Сусумане (Магаданская область, Россия) (328 км)
Погода в Колымской (Магаданская область, Россия) (344 км)

Пояснения к столбцам:

Ветер - указаны скорость ветра в м/с - средняя за 10 мин, порывы в срок и между сроками (в фигурных скобках) и направление, откуда дует ветер: С - северный, СВ - северо-восточный, В - восточный, ЮВ - юго-восточный, Ю - южный, ЮЗ - юго-западный, З - западный, СЗ - северо-западный.
Видимость - горизонтальная дальность видимости в метрах или километрах. При видимости от 1 до 10 км при отсутствии осадков обычно наблюдается дымка, при ухудшении видимости до 1 км и менее - туман. В сухую погоду видимость может ухудшаться дымом, пылью или мглою.
Явления - указаны атмосферные явления, наблюдавшиеся в срок или в последний час перед сроком; фигурными скобками обозначены явления, наблюдавшиеся между сроками (за 1-3 часа до срока); квадратными скобками обозначены град или гололедные отложения с указанием их диаметра в мм.
Облачность - указаны через наклонную черту общая и нижняя облачность в баллах и высота нижней границы облаков в метрах; квадратными скобками обозначены формы облаков: Ci - перистые, Cs - перисто-слоистые, Cc - перисто-кучевые, Ac - высококучевые, As - высокослоистые, Sc - слоисто-кучевые, Ns - слоисто-дождевые, Cu - кучевые, Cb - кучево-дождевые. Подробнее классификацию облаков см. в Атласе облаков (PDF).
T - Температура воздуха - температура, измеренная на высоте 2 м над землей.
Td - Температура точки росы - температура, при понижении до которой содержащийся в воздухе водяной пар достигнет насыщения.
f - Относительная влажность воздуха - влажноcть воздуха, измеренная на высоте 2 м над землей.
Te - Эффективная температура - температура, которую ощущает одетый по сезону человек в тени. Характеристика душности погоды. При расчете учитывается влияние влажности воздуха и скорости ветра на теплоощущения человека.
Tes - Эффективная температура на солнце - температура, которую ощущает человек, с поправкой на солнечный нагрев. Характеристика знойности погоды. Зависит от высоты солнца над горизонтом, облачности и скорости ветра. Ночью, в пасмурную погоду, а также при ветре 12 м/с и более поправка равна нулю.
P - Атмосферное давление - приведенное к уровню моря атмосферное давление.
Po - Атмосферное давление - измеренное на уровне метеостанции атмосферное давление.
Tmin - Минимальная температура - минимум температуры воздуха на высоте 2 м над землей.
Tmax - Максимальная температура - максимум температуры воздуха на высоте 2 м над землей.
R - Количество осадков - Количество выпавших осадков за период времени, мм. При наведении курсора мыши на число - период времени, за который выпало указанное количество осадков.
R24 - Количество осадков - Количество выпавших осадков за 24 часа, мм.
S - Снежный покров - Высота снежного покрова, см. При наведении курсора мыши на число - состояние снежного покрова и степень покрытия местности в баллах.